Tunica, MS

12:05 AM CDT on June 23, 2017 (GMT -0500)
Tunica

Weather History for KUTA - May, 2014

Change the Weather History Date:

Monday, May 12, 2014

  Actual Average (KAWM) Record (KAWM)
Temperature  
Mean Temperature 79 °F -  
Max Temperature 87 °F 79 °F 90 °F (1963)
Min Temperature 71 °F 59 °F 45 °F (1989)
Cooling Degree Days 14    
Growing Degree Days 29 (Base 50)    
Moisture  
Dew Point 67 °F    
Average Humidity 72    
Maximum Humidity 94    
Minimum Humidity 40    
Precipitation  
Precipitation 0.16 in - - ()
Sea Level Pressure  
Sea Level Pressure 29.99 in    
Wind  
Wind Speed 12 mph (SSE)    
Max Wind Speed 20 mph    
Max Gust Speed 38 mph    
Visibility 10 miles    
Events Rain , Thunderstorm    
Averages and records for this station are not official NWS values.
T = Trace of Precipitation, MM = Missing Value Source: NWS Daily Summary

Daily Weather History Graph

Daily Weather History Graph

Search for Another Location

Airport or City:

Trip Planner

Search our weather history database for the weather conditions in past years. The results will help you decide how hot, cold, wet, or windy it might be!

Date:

Astronomy

May. 12, 2014 Rise Set
Actual Time 6:00 AM CDT 7:55 PM CDT
Civil Twilight 5:33 AM CDT 8:22 PM CDT
Nautical Twilight 4:59 AM CDT 8:56 PM CDT
Astronomical Twilight 4:23 AM CDT 9:32 PM CDT
Moon 5:58 PM CDT (5/12) 4:33 AM CDT (5/12)
Length of Visible Light 14h 49m
Length of Day
13h 54m
Waxing Gibbous, 95% of the Moon is Illuminated
May 12
Waxing Gibbous
May 14
Full
May 21
Last Quarter
May 28
New
Jun 5
First Quarter

Hourly Weather History & Observations

Time (CDT) Temp. Heat Index Dew Point Humidity Pressure Visibility Wind Dir Wind Speed Gust Speed Precip Events Conditions
12:15 AM 73.4 °F - 68.0 °F 83% 29.97 in 10.0 mi South 10.4 mph - N/A   Clear
12:35 AM 73.4 °F - 68.0 °F 83% 29.97 in 10.0 mi SSE 12.7 mph - N/A   Clear
12:55 AM 73.4 °F - 68.0 °F 83% 29.97 in 10.0 mi SSE 11.5 mph - N/A   Clear
1:15 AM 71.6 °F - 68.0 °F 88% 29.96 in 10.0 mi SSE 10.4 mph - N/A   Clear
1:35 AM 71.6 °F - 68.0 °F 88% 29.96 in 10.0 mi SSE 10.4 mph - N/A   Clear
1:55 AM 71.6 °F - 68.0 °F 88% 29.96 in 10.0 mi SSE 10.4 mph - N/A   Clear
2:15 AM 71.6 °F - 68.0 °F 88% 29.97 in 10.0 mi SSE 10.4 mph - N/A   Clear
2:35 AM 71.6 °F - 68.0 °F 88% 29.97 in 10.0 mi SSE 10.4 mph - N/A   Clear
2:55 AM 71.6 °F - 68.0 °F 88% 29.98 in 10.0 mi SSE 11.5 mph - N/A   Clear
3:15 AM 71.6 °F - 68.0 °F 88% 29.98 in 10.0 mi SSE 9.2 mph - N/A   Scattered Clouds
3:35 AM 71.6 °F - 68.0 °F 88% 29.98 in 10.0 mi South 9.2 mph - N/A   Scattered Clouds
3:55 AM 71.6 °F - 68.0 °F 88% 29.98 in 10.0 mi SSE 10.4 mph - N/A   Scattered Clouds
4:15 AM 71.6 °F - 68.0 °F 88% 29.98 in 10.0 mi SSE 10.4 mph - N/A   Mostly Cloudy
4:35 AM 71.6 °F - 68.0 °F 88% 29.98 in 10.0 mi SSE 10.4 mph - N/A   Mostly Cloudy
4:55 AM 71.6 °F - 68.0 °F 88% 29.99 in 10.0 mi SSE 8.1 mph - N/A   Mostly Cloudy
5:15 AM 71.6 °F - 68.0 °F 88% 29.99 in 10.0 mi SSE 9.2 mph - N/A   Mostly Cloudy
5:35 AM 71.6 °F - 68.0 °F 88% 29.99 in 7.0 mi SSE 12.7 mph - N/A   Mostly Cloudy
5:55 AM 71.6 °F - 69.8 °F 94% 30.00 in 7.0 mi SSE 11.5 mph - N/A   Scattered Clouds
6:15 AM 71.6 °F - 68.0 °F 88% 30.00 in 7.0 mi SSE 10.4 mph - N/A   Mostly Cloudy
6:35 AM 71.6 °F - 69.8 °F 94% 30.01 in 7.0 mi SSE 11.5 mph - N/A   Mostly Cloudy
6:55 AM 71.6 °F - 69.8 °F 94% 30.01 in 7.0 mi SSE 11.5 mph - N/A   Mostly Cloudy
7:15 AM 73.4 °F - 69.8 °F 88% 30.02 in 7.0 mi SSE 12.7 mph - N/A   Overcast
7:35 AM 73.4 °F - 69.8 °F 88% 30.02 in 7.0 mi SSE 11.5 mph - N/A   Overcast
7:55 AM 75.2 °F - 69.8 °F 83% 30.03 in 10.0 mi South 13.8 mph - N/A   Mostly Cloudy
8:15 AM 77.0 °F - 69.8 °F 78% 30.04 in 10.0 mi South 15.0 mph 21.9 mph N/A   Scattered Clouds
8:35 AM 77.0 °F - 69.8 °F 78% 30.04 in 10.0 mi SSW 13.8 mph 20.7 mph N/A   Scattered Clouds
9:15 AM 78.8 °F - 69.8 °F 74% 30.05 in 10.0 mi SSW 17.3 mph - N/A   Mostly Cloudy
9:35 AM 80.6 °F 83.9 °F 69.8 °F 70% 30.05 in 10.0 mi South 16.1 mph 26.5 mph N/A   Mostly Cloudy
9:55 AM 80.6 °F 83.9 °F 69.8 °F 70% 30.05 in 10.0 mi South 18.4 mph 25.3 mph N/A   Mostly Cloudy
10:15 AM 80.6 °F 83.9 °F 69.8 °F 70% 30.04 in 10.0 mi South 18.4 mph 26.5 mph N/A   Mostly Cloudy
10:35 AM 82.4 °F 86.3 °F 69.8 °F 66% 30.04 in 10.0 mi South 18.4 mph 23.0 mph N/A   Mostly Cloudy
10:55 AM 82.4 °F 85.4 °F 68.0 °F 62% 30.04 in 10.0 mi South 18.4 mph 25.3 mph N/A   Scattered Clouds
11:15 AM 84.2 °F 87.3 °F 68.0 °F 58% 30.04 in 10.0 mi South 17.3 mph 26.5 mph N/A   Scattered Clouds
11:35 AM 82.4 °F 85.4 °F 68.0 °F 62% 30.04 in 10.0 mi South 17.3 mph 24.2 mph N/A   Scattered Clouds
11:55 AM 86.0 °F 89.4 °F 68.0 °F 55% 30.04 in 10.0 mi South 13.8 mph 26.5 mph N/A   Scattered Clouds
12:15 PM 86.0 °F 88.2 °F 66.2 °F 51% 30.03 in 10.0 mi SSW 16.1 mph 26.5 mph N/A   Scattered Clouds
12:35 PM 86.0 °F 88.2 °F 66.2 °F 51% 30.03 in 10.0 mi South 19.6 mph 25.3 mph N/A Thunderstorm Scattered Clouds
12:55 PM 87.8 °F 90.4 °F 66.2 °F 49% 30.02 in 10.0 mi South 17.3 mph 26.5 mph N/A   Scattered Clouds
1:15 PM 86.0 °F 87.3 °F 64.4 °F 48% 30.02 in 10.0 mi South 18.4 mph 24.2 mph N/A   Scattered Clouds
1:35 PM 87.8 °F 89.4 °F 64.4 °F 46% 30.01 in 10.0 mi South 19.6 mph 26.5 mph N/A   Scattered Clouds
3:15 PM 87.8 °F 89.4 °F 64.4 °F 46% 29.98 in 10.0 mi South 16.1 mph 31.1 mph N/A   Scattered Clouds
3:35 PM 87.8 °F 88.5 °F 62.6 °F 43% 29.98 in 10.0 mi South 17.3 mph 21.9 mph N/A   Scattered Clouds
3:55 PM 86.0 °F 86.6 °F 62.6 °F 45% 29.98 in 10.0 mi South 15.0 mph 26.5 mph N/A   Scattered Clouds
4:15 PM 86.0 °F 86.1 °F 60.8 °F 43% 29.96 in 10.0 mi South 15.0 mph 20.7 mph N/A   Scattered Clouds
4:35 PM 87.8 °F 88.5 °F 62.6 °F 43% 29.95 in 10.0 mi South 15.0 mph 20.7 mph N/A   Scattered Clouds
4:55 PM 87.8 °F 88.5 °F 62.6 °F 43% 29.95 in 10.0 mi South 11.5 mph 21.9 mph N/A   Scattered Clouds
5:15 PM 87.8 °F 87.6 °F 60.8 °F 40% 29.93 in 10.0 mi South 17.3 mph 20.7 mph N/A   Clear
5:35 PM 86.0 °F 86.6 °F 62.6 °F 45% 29.93 in 10.0 mi South 13.8 mph 18.4 mph N/A   Scattered Clouds
5:55 PM 87.8 °F 88.5 °F 62.6 °F 43% 29.93 in 10.0 mi South 16.1 mph 20.7 mph N/A   Clear
6:15 PM 86.0 °F 86.6 °F 62.6 °F 45% 29.94 in 10.0 mi South 19.6 mph - N/A   Clear
6:35 PM 86.0 °F 86.6 °F 62.6 °F 45% 29.94 in 10.0 mi SSE 18.4 mph 23.0 mph N/A   Clear
6:55 PM 82.4 °F 83.4 °F 62.6 °F 51% 29.95 in 10.0 mi SSE 12.7 mph - N/A   Clear
7:15 PM 82.4 °F 83.9 °F 64.4 °F 54% 29.95 in 10.0 mi SSE 15.0 mph - N/A   Scattered Clouds
7:35 PM 75.2 °F - 66.2 °F 73% 29.97 in 1.8 mi SE 19.6 mph 38.0 mph 0.09 in Rain , Thunderstorm Heavy Thunderstorms and Rain
7:55 PM 75.2 °F - 69.8 °F 83% 29.97 in 10.0 mi SW 10.4 mph - 0.11 in Rain Light Rain
8:15 PM 75.2 °F - 69.8 °F 83% 29.97 in 7.0 mi SE 9.2 mph 16.1 mph 0.05 in Rain Light Rain
8:35 PM 73.4 °F - 69.8 °F 88% 29.96 in 10.0 mi SE 6.9 mph - 0.05 in   Scattered Clouds
8:55 PM 75.2 °F - 69.8 °F 83% 29.97 in 10.0 mi SE 10.4 mph - 0.05 in   Scattered Clouds
9:15 PM 77.0 °F - 69.8 °F 78% 29.96 in 10.0 mi SE 10.4 mph - N/A   Scattered Clouds
9:35 PM 75.2 °F - 69.8 °F 83% 29.96 in 10.0 mi SE 10.4 mph - N/A   Clear
9:55 PM 75.2 °F - 68.0 °F 78% 29.97 in 10.0 mi SSE 10.4 mph - N/A   Clear
10:15 PM 75.2 °F - 68.0 °F 78% 29.98 in 10.0 mi SSE 10.4 mph - N/A   Scattered Clouds
10:35 PM 75.2 °F - 68.0 °F 78% 29.99 in 10.0 mi SSE 10.4 mph - N/A   Scattered Clouds
10:55 PM 73.4 °F - 68.0 °F 83% 29.99 in 10.0 mi SSE 9.2 mph - N/A   Scattered Clouds
11:15 PM 73.4 °F - 68.0 °F 83% 29.99 in 10.0 mi SSE 10.4 mph - N/A   Scattered Clouds
11:35 PM 73.4 °F - 68.0 °F 83% 29.99 in 10.0 mi South 6.9 mph - N/A   Clear
11:55 PM 71.6 °F - 68.0 °F 88% 29.99 in 10.0 mi SSE 6.9 mph - N/A   Clear